Regional Weather Roundup
Issued by NWS

Home | Current Version | Previous Version | Text Only | Print | Product List | Glossary On
Versions: 1 2 3 4 5 6 7 8 9 10 11 12 13 14 15 16 17 18 19 20 21 22 23 24 25 26 27 28 29 30 31 32 33 34 35 36 37 38 39 40 41 42 43 44 45 46 47 48 49 50
000
ASUS43 KDMX 292307
RWRIA

WEATHER ROUNDUP FOR IOWA
NATIONAL WEATHER SERVICE DES MOINES IA
600 PM CDT FRI MAY 29 2015

NOTE: "FAIR" INDICATES FEW OR NO CLOUDS BELOW 12,000 FEET WITH NO
SIGNIFICANT WEATHER AND/OR OBSTRUCTIONS TO VISIBILITY.

* - THESE STATIONS ARE NOT NWS STATIONS...THUS NOT UNDER NWS
QUALITY CONTROL.  THEY ALSO DO NOT REPORT WEATHER SUCH
AS PRECIPITATION OR FOG.

IAZ001>003-012>014-020>022-031>034-043>046-300000-
   NORTHWEST IOWA

CITY           SKY/WX    TMP DP  RH WIND       PRES   REMARKS
CARROLL *      SUNNY     77  59  53 SW17      29.87S
CHEROKEE *     CLOUDY    63  59  88 N20G28    29.92R
DENISON *      SUNNY     75  66  73 SW10G16   29.86S
LE MARS *      CLOUDY    59  55  88 N17G26    29.97R
ORANGE CITY *  CLOUDY    55  54  94 N16G22    29.97R
SHELDON *      CLOUDY    55  54  94 N20G29    29.97R
SIOUX CITY     LGT RAIN  62  58  86 N20       29.94R
SPENCER        CLOUDY    60  55  83 N23G31    29.94R
STORM LAKE *   PTSUNNY   63  59  88 N17G24    29.92R
$$

IAZ055>058-069>071-079>083-090>094-300000-
   SOUTHWEST IOWA

CITY           SKY/WX    TMP DP  RH WIND       PRES   REMARKS
ATLANTIC *     SUNNY     75  64  69 SW17      29.89F
AUDUBON *      SUNNY     75  63  64 SW10G16   29.90F
CLARINDA *     MOSUNNY   73  66  78 SW14      29.93S
COUNCIL BLFS * SUNNY     77  64  65 SW9G17    29.89F
CRESTON *      MOSUNNY   72  64  78 SW16      29.92S
HARLAN  *      SUNNY     75  66  73 SW10G16   29.92F
LAMONI         CLOUDY    72  64  76 SW9       29.93S
RED OAK *      MOSUNNY   75  63  64 SW12      29.90F
SHENANDOAH *   PTSUNNY   77  64  65 SW12      29.91F
$$

IAZ047>049-059>061-072>074-084-300000-
   CENTRAL IOWA

CITY           SKY/WX    TMP DP  RH WIND       PRES   REMARKS
AMES           CLOUDY    75  63  66 SW17      29.87F
ANKENY *       SUNNY     73  66  78 SW10      29.88F
CHARITON *     PTSUNNY   70  64  83 SW8G15    29.92S
DES MOINES     CLOUDY    75  64  68 SW16      29.88F
GRINNELL*      DRIZZLE   72  63  73 SW12      29.91F
KNOXVILLE *    MOSUNNY   70  64  83 W9        29.90S
MARSHALLTOWN   CLOUDY    74  64  71 SW12      29.88F
PELLA *        LGT RAIN  70  68  94 W5        29.91F
PERRY *        PTSUNNY   75  64  69 SW18      29.88F
$$

IAZ004>006-015-016-023>025-035-036-300000-
   NORTH CENTRAL IOWA

CITY           SKY/WX    TMP DP  RH WIND       PRES   REMARKS
ALGONA *       PTSUNNY   66  64  94 N16G24    29.89R
CLARION *      SUNNY     75  66  73 SW15G22   29.86S
ESTHERVILLE    CLOUDY    60  58  92 N18       29.91S
FORT DODGE *   CLOUDY    73  63  68 NW12G18   29.88R
MASON CITY     CLOUDY    70  66  87 SW6       29.88F
FOREST CITY *  CLOUDY    66  63  88 CALM      29.87F
IOWA FALLS *     N/A     73  64  73 SW10      29.88F
$$

IAZ007>011-017>019-026>030-037>042-050>054-066-300000-
   NORTHEAST IOWA

CITY           SKY/WX    TMP DP  RH WIND       PRES   REMARKS
CEDAR RAPIDS   CLOUDY    74  68  81 W13       29.89F
CHARLES CITY * SUNNY     70  68  94 S8        29.88S
CLINTON *      PTSUNNY   75  66  73 W13G21    29.92R
DECORAH *      LGT RAIN  66  64  94 CALM      29.87F
DUBUQUE        CLOUDY    76  68  76 SW8       29.88F
MONTICELLO *   SUNNY     75  66  73 SW13      29.88S
OELWEIN *      CLOUDY    68  64  88 SW10G17   29.89F FOG
WATERLOO       CLOUDY    73  66  78 CALM      29.86F
$$

IAZ064-065-067-068-078-300000-
   EAST CENTRAL IOWA

CITY           SKY/WX    TMP DP  RH WIND       PRES   REMARKS
DAVENPORT      PTSUNNY   78  60  53 W14       29.91R
IOWA CITY      PTSUNNY   74  65  73 W13       29.91S
MT. PLEASANT * PTSUNNY   75  64  69 SW12      29.92S
MUSCATINE *    CLOUDY    79  64  61 W9        29.90S HX  81
QUAD CITIES    PTSUNNY   78  64  61 W9        29.89S HX  80
$$

IAZ062-063-075>077-085>089-095>099-300000-
   SOUTHEAST IOWA

CITY           SKY/WX    TMP DP  RH WIND       PRES   REMARKS
BURLINGTON     PTSUNNY   77  66  68 SW8G18    29.91S
FAIRFIELD *    SUNNY     75  64  69 SW10G17   29.92S
FORT MADISON * SUNNY     75  64  69 SW8       29.93F
KEOKUK *       SUNNY     75  66  73 SW10      29.92F
OSKALOOSA *    PTSUNNY   72  64  78 SW7       29.92S
CENTERVILLE *  SUNNY     68  68 100 SW8       29.94S
OTTUMWA        CLOUDY    72  64  76 SW7       29.91S
WASHINGTON *   PTSUNNY   77  64  65 W12       29.93S
$$

ABBREVIATIONS USED IN REMARKS
   TC - TEMPERATURES IN CELSIUS
  WCI - WIND CHILL INDEX
   HX - HEAT INDEX
  VSB - VISIBILITY
$$



USA.gov is the U.S. government's official web portal to all federal, state and local government web resources and services.